HOWARD Weather Reports


time (UTC)temp
F
wind
direction
speed
knots
gust
knots
rain 1hr
in
rain 24hr
in
rain mn
in
humidity
%
barometer
mb
20260503070144 45 0 0.0 1.7 0.00 0.00 0.00 53 1015.2
20260503060145 45 20 1.7 3.5 0.00 0.00 0.00 53 1015.3
20260503054145 45 31 1.7 3.5 0.00 0.00 0.00 53 1015.3
20260503053144 45 31 0.9 2.6 0.00 0.00 0.00 50 1015.5
20260503052144 46 31 0.9 2.6 0.00 0.00 0.00 47 1015.5
20260503051145 46 31 0.9 3.5 0.00 0.00 0.00 47 1015.5
20260503050144 45 17 2.6 5.2 0.00 0.00 0.00 48 1015.5
20260503045144 46 33 2.6 5.2 0.00 0.00 0.00 47 1015.5
20260503044215 46 28 2.6 5.2 0.00 0.00 0.00 51 1015.5
20260503044144 46 28 2.6 5.2 0.00 0.00 0.00 51 1015.5
20260503043216 46 29 2.6 4.3 0.00 0.00 0.00 48 1015.4
20260503043144 46 29 2.6 4.3 0.00 0.00 0.00 48 1015.4
20260503042144 46 356 3.5 5.2 0.00 0.00 0.00 50 1015.3
20260503041144 46 333 0.9 5.2 0.00 0.00 0.00 52 1015.3
20260503040144 46 328 0.9 3.5 0.00 0.00 0.00 53 1015.3
20260503035144 46 0 0.0 2.6 0.00 0.00 0.00 54 1015.3
20260503034144 46 328 1.7 3.5 0.00 0.00 0.00 55 1015.1
20260503033144 46 328 0.9 1.7 0.00 0.00 0.00 55 1014.9
20260503032227 46 0 0.0 1.7 0.00 0.00 0.00 55 1014.8
20260503032144 46 0 0.0 1.7 0.00 0.00 0.00 55 1014.8
20260503031144 46 328 0.9 2.6 0.00 0.00 0.00 54 1014.7
20260503030144 45 328 0.9 4.3 0.00 0.00 0.00 52 1014.7
20260503025146 45 322 0.9 4.3 0.00 0.00 0.00 52 1014.7
20260503024144 45 320 1.7 5.2 0.00 0.00 0.00 52 1014.6
20260503023144 46 329 2.6 7.0 0.00 0.00 0.00 50 1014.7
20260503022144 46 344 2.6 5.2 0.00 0.00 0.00 52 1014.7
20260503021144 46 348 3.5 6.1 0.00 0.00 0.00 53 1014.7
20260503020144 47 311 2.6 8.7 0.00 0.00 0.00 55 1014.8
20260503015218 48 352 4.3 8.7 0.00 0.00 0.00 55 1014.8
20260503015144 48 352 4.3 8.7 0.00 0.00 0.00 55 1014.8
20260503014144 48 354 2.6 5.2 0.00 0.00 0.00 51 1014.7
20260503013144 48 59 2.6 6.1 0.00 0.00 0.00 50 1014.8
20260503012215 48 32 4.3 7.0 0.00 0.00 0.00 49 1014.9
20260503012144 48 32 4.3 7.0 0.00 0.00 0.00 49 1014.9
20260503011144 48 72 1.7 7.0 0.00 0.00 0.00 50 1014.9
20260503010220 49 49 2.6 5.2 0.00 0.00 0.00 49 1014.9
20260503010144 49 49 2.6 5.2 0.00 0.00 0.00 49 1014.9
20260503005144 50 20 3.5 7.8 0.00 0.00 0.00 47 1015.0
20260503004144 50 17 4.3 8.7 0.00 0.00 0.00 47 1015.0
20260503003144 51 332 4.3 10.4 0.00 0.00 0.00 46 1014.9
20260503002144 51 309 3.5 9.6 0.00 0.00 0.00 44 1014.8
20260503001144 52 302 3.5 10.4 0.00 0.00 0.00 44 1014.8
20260503000218 51 308 4.3 9.6 0.00 0.00 0.00 45 1014.8
20260503000144 51 308 4.3 9.6 0.00 0.00 0.00 45 1014.8
20260502235144 51 295 4.3 11.3 0.00 0.00 0.00 45 1014.8
20260502234217 52 322 4.3 11.3 0.00 0.00 0.00 1014.9
20260502234144 52 322 4.3 11.3 0.00 0.00 0.00 1014.9
20260502233144 52 314 6.1 10.4 0.00 0.00 0.00 43 1015.0
20260502232144 52 328 2.6 10.4 0.00 0.00 0.00 41 1015.2
20260502231351 53 323 1.7 7.0 0.00 0.00 0.00 36 1015.1
20260502231320 53 307 3.5 7.8 0.00 0.00 0.00 1015.2
20260502231144 53 323 1.7 7.0 0.00 0.00 0.00 36 1015.1
20260502230144 53 307 3.5 7.8 0.00 0.00 0.00 1015.2
20260502225152 54 328 1.7 7.8 0.00 0.00 0.00 35 1014.7
20260502225144 53 26 4.3 8.7 0.00 0.00 0.00 34 1015.3
20260502224144 54 328 1.7 7.8 0.00 0.00 0.00 35 1014.7
20260502223144 54 309 2.6 7.8 0.00 0.00 0.00 35 1014.9
20260502222144 53 328 2.6 9.6 0.00 0.00 0.00 34 1014.9
20260502221147 53 297 3.5 9.6 0.00 0.00 0.00 36 1015.0
20260502220144 51 17 1.7 7.0 0.00 0.00 0.00 38 1015.2
20260502215144 51 20 4.3 8.7 0.00 0.00 0.00 37 1015.3
20260502214144 50 5 1.7 7.8 0.00 0.00 0.00 39 1015.5
20260502213144 51 41 2.6 7.8 0.00 0.00 0.00 36 1015.6
20260502212144 51 326 1.7 6.1 0.00 0.00 0.00 37 1015.7
20260502211144 51 338 0.9 7.0 0.00 0.00 0.00 39 1015.7
20260502210144 51 9 2.6 6.1 0.00 0.00 0.00 37 1015.7
20260502205144 51 30 2.6 7.0 0.00 0.00 0.00 37 1015.8
20260502204144 51 3 3.5 6.1 0.00 0.00 0.00 37 1015.8
20260502203144 52 319 2.6 7.0 0.00 0.00 0.00 37 1015.7
20260502202144 52 327 3.5 6.1 0.00 0.00 0.00 37 1015.9
20260502201224 51 299 2.6 5.2 0.00 0.00 0.00 40 1015.9
20260502201144 51 299 2.6 5.2 0.00 0.00 0.00 40 1015.9
20260502200144 51 308 2.6 7.8 0.00 0.00 0.00 37 1015.9
20260502195144 51 14 1.7 5.2 0.00 0.00 0.00 37 1015.9
20260502194220 51 315 2.6 5.2 0.00 0.00 0.00 35 1015.9
20260502194144 51 315 2.6 5.2 0.00 0.00 0.00 35 1015.9
20260502193144 51 316 2.6 7.8 0.00 0.00 0.00 35 1016.1
20260502192144 52 303 2.6 7.0 0.00 0.00 0.00 37 1016.0
20260502191144 52 287 1.7 7.0 0.00 0.00 0.00 37 1016.1
20260502190144 52 320 2.6 7.8 0.00 0.00 0.00 36 1016.1
20260502185144 52 308 2.6 5.2 0.00 0.00 0.00 36 1016.3
20260502184144 53 283 1.7 5.2 0.00 0.00 0.00 33 1015.6
20260502183144 52 270 1.7 5.2 0.00 0.00 0.00 36 1015.7
20260502182144 52 267 1.7 6.1 0.00 0.00 0.00 37 1015.6
20260502181144 52 290 1.7 3.5 0.00 0.00 0.00 37 1015.7
20260502180143 52 288 1.7 3.5 0.00 0.00 0.00 37 1015.7
20260502170143 50 162 1.7 4.3 0.00 0.00 0.00 28 1015.8
20260502164144 50 195 0.9 2.6 0.00 0.00 0.00 28 1015.6
20260502163219 50 205 0.9 4.3 0.00 0.00 0.00 28 1015.6
20260502163143 50 205 0.9 4.3 0.00 0.00 0.00 28 1015.6
20260502162143 50 240 0.9 6.1 0.00 0.00 0.00 29 1015.6
20260502161143 49 219 0.9 3.5 0.00 0.00 0.00 30 1015.4
20260502160143 49 184 0.9 4.3 0.00 0.00 0.00 30 1015.4
20260502152143 46 226 2.6 6.1 0.00 0.00 0.00 32 1015.3
20260502151143 46 224 2.6 7.8 0.00 0.00 0.00 32 1015.3
20260502150143 46 224 2.6 7.8 0.00 0.00 0.00 33 1015.0
20260502130143 43 204 2.6 7.0 0.00 0.00 0.00 41 1014.2
20260502123143 43 214 4.3 13.0 0.00 0.00 0.00 43 1014.2
20260502122143 43 207 5.2 13.0 0.00 0.00 0.00 43 1014.2
20260502121143 43 214 7.0 14.8 0.00 0.00 0.00 45 1014.2
20260502120143 43 203 5.2 12.2 0.00 0.00 0.00 45 1014.2
20260502115143 43 203 6.1 11.3 0.00 0.00 0.00 44 1014.3
20260502114143 43 200 5.2 10.4 0.00 0.00 0.00 45 1014.3
20260502113143 43 179 5.2 12.2 0.00 0.00 0.00 44 1014.3
20260502112143 44 202 7.0 12.2 0.00 0.00 0.00 45 1014.3
20260502111144 43 189 4.3 14.8 0.00 0.00 0.00 45 1014.3
20260502110143 43 210 7.0 13.9 0.00 0.00 0.00 45 1014.4
20260502105143 43 203 6.1 16.5 0.00 0.00 0.00 47 1014.4
20260502104143 43 205 4.3 10.4 0.00 0.00 0.00 48 1014.5
20260502103225 42 195 2.6 7.8 0.00 0.00 0.00 50 1014.3
20260502103143 42 195 2.6 7.8 0.00 0.00 0.00 50 1014.3
20260502102143 42 196 0.9 7.8 0.00 0.00 0.00 50 1014.5
20260502101143 42 193 3.5 6.1 0.00 0.00 0.00 49 1014.6
20260502100143 42 198 1.7 7.0 0.00 0.00 0.00 49 1014.6
20260502091143 42 231 3.5 7.0 0.00 0.00 0.00 50 1014.8
20260502090143 42 238 4.3 9.6 0.00 0.00 0.00 49 1015.0
20260502071143 43 232 3.5 5.2 0.00 0.00 0.00 27 1015.2